Starlink 33657

operational
NORAD ID: 63370 Int'l Des: 2025-063 Owner: SPXS Country: US Constellation: starlink
LEOCIRCULAR

Über Starlink 33657

Beschreibung wird geladen...

Live-Position

3D-Globus wird geladen...

Nächste Überflüge

Höhenverlauf

Altitude vs Time

uPlot chart will show altitude changes over time

Zweizeiliger Elementsatz

1 63370U 25063H 25304.66191454 .00034506 00000-0 11701-2 0 9995
2 63370 53.1586 291.8615 0001334 90.9971 269.1183 15.30245844 34954
Epoch: 31. Okt. 2025 • Age: 20 hours

Aktueller Status

Höhe 485.6 km
Geschwindigkeit 7.62 km/s
Subsatellitenpunkt -32.25°S, 37.65°E
Startdatum 26. März 2025
Alter 0.5 years
Typ internet

Technische Details

Klassifizierung Payload
Masse 575.00 kg
Trockenmasse 530.00 kg
Gesamtmasse 575.00 kg
Länge 0.30 m
Durchmesser 4.10 m
Spannweite 29.00 m
Form Box + pan
Hersteller SPXS
Bus-Typ Starlink V2MO
Phasenstatus In Orbit
Besitzer/Staat SPXS/US

Große Konstellationen

Loading constellations...